Edwards, CA

4:08 AM PST on January 22, 2017 (GMT -0800)
Edwards Air Force Base

Weather History for KEDW - July, 2013

Change the Weather History Date:

Tuesday, July 9, 2013

  Actual Average Record
Temperature  
Mean Temperature 86 °F -  
Max Temperature 106 °F 97 °F 113 °F (2002)
Min Temperature 67 °F 64 °F 57 °F (2000)
Cooling Degree Days 21    
Growing Degree Days 36 (Base 50)    
Moisture  
Dew Point 33 °F    
Average Humidity 15    
Maximum Humidity 29    
Minimum Humidity 7    
Precipitation  
Precipitation 0.00 in - - ()
Sea Level Pressure  
Sea Level Pressure 29.93 in    
Wind  
Wind Speed 9 mph (SW)    
Max Wind Speed 23 mph    
Max Gust Speed 31 mph    
Visibility 10 miles    
Events      
Averages and records for this station are not official NWS values.
T = Trace of Precipitation, MM = Missing Value Source: NWS Daily Summary

Daily Weather History Graph

Daily Weather History Graph

Search for Another Location

Airport or City:

Trip Planner

Search our weather history database for the weather conditions in past years. The results will help you decide how hot, cold, wet, or windy it might be!

Date:

Astronomy

Jul. 09, 2013 Rise Set
Actual Time 5:45 AM PDT 8:07 PM PDT
Civil Twilight 5:16 AM PDT 8:36 PM PDT
Nautical Twilight 4:40 AM PDT 9:12 PM PDT
Astronomical Twilight 4:01 AM PDT 9:52 PM PDT
Moon 7:09 AM PDT (7/9) 8:54 PM PDT (7/9)
Length of Visible Light 15h 20m
Length of Day
14h 22m
New Moon, 2% of the Moon is Illuminated
Jul 9
New Moon
Jul 15
First Quarter
Jul 22
Full
Jul 29
Last Quarter
Aug 6
New

Hourly Weather History & Observations

Time (PDT) Temp. Dew Point Humidity Pressure Visibility Wind Dir Wind Speed Gust Speed Precip Events Conditions
12:58 AM 75.0 °F 34.3 °F 23% 29.93 in 10.0 mi SSW 5.8 mph - N/A   Clear
1:58 AM 72.7 °F 34.3 °F 25% 29.93 in 10.0 mi South 9.2 mph - N/A   Clear
2:58 AM 69.8 °F 34.9 °F 28% 29.93 in 10.0 mi SW 6.9 mph - N/A   Clear
3:58 AM 69.6 °F 34.7 °F 28% 29.92 in 10.0 mi WSW 3.5 mph - N/A   Clear
4:58 AM 67.1 °F 33.8 °F 29% 29.94 in 10.0 mi WSW 4.6 mph - N/A   Clear
5:58 AM 67.5 °F 32.5 °F 27% 29.94 in 90.0 mi WSW 4.6 mph - N/A   Partly Cloudy
6:58 AM 72.0 °F 31.6 °F 23% 29.96 in 90.0 mi SSW 5.8 mph - N/A   Partly Cloudy
7:58 AM 78.6 °F 30.7 °F 17% 29.98 in 90.0 mi SSW 9.2 mph - N/A   Partly Cloudy
8:58 AM 86.2 °F 30.4 °F 13% 29.98 in 90.0 mi SSW 9.2 mph - N/A   Partly Cloudy
9:58 AM 91.4 °F 30.4 °F 11% 29.97 in 90.0 mi South 6.9 mph - N/A   Partly Cloudy
10:58 AM 96.4 °F 26.6 °F 8% 29.96 in 90.0 mi South 8.1 mph - N/A   Partly Cloudy
11:58 AM 98.4 °F 28.2 °F 8% 29.96 in 90.0 mi West 9.2 mph - N/A   Partly Cloudy
12:58 PM 99.9 °F 26.1 °F 7% 29.95 in 90.0 mi WSW 6.9 mph - N/A   Partly Cloudy
1:58 PM 102.2 °F 27.9 °F 7% 29.93 in 90.0 mi Variable 2.3 mph - N/A   Partly Cloudy
2:50 PM 102.2 °F 28.4 °F 7% 29.98 in 90.0 mi WSW 12.7 mph 26.5 mph N/A   Partly Cloudy
2:58 PM 103.8 °F 29.1 °F 7% 29.90 in 90.0 mi SW 13.8 mph 26.5 mph N/A   Partly Cloudy
3:58 PM 105.6 °F 32.4 °F 8% 29.88 in 80.0 mi WSW 13.8 mph 17.3 mph N/A   Partly Cloudy
4:58 PM 104.0 °F 38.1 °F 10% 29.87 in 70.0 mi SW 20.7 mph 24.2 mph N/A   Partly Cloudy
5:58 PM 102.2 °F 39.0 °F 11% 29.87 in 70.0 mi SW 20.7 mph 25.3 mph N/A   Partly Cloudy
6:34 PM 100.4 °F 39.2 °F 12% 29.95 in 70.0 mi WSW 23.0 mph 28.8 mph N/A   Partly Cloudy
6:58 PM 98.6 °F 36.1 °F 11% 29.88 in 70.0 mi WSW 20.7 mph 31.1 mph N/A   Partly Cloudy
7:58 PM 94.1 °F 36.3 °F 13% 29.89 in 70.0 mi WSW 16.1 mph 23.0 mph N/A   Partly Cloudy
8:58 PM 89.2 °F 36.5 °F 15% 29.90 in 40.0 mi SW 10.4 mph - N/A   Clear
9:59 PM 85.6 °F 35.1 °F 16% 29.91 in 40.0 mi SW 10.4 mph - N/A   Clear
10:58 PM 82.8 °F 34.2 °F 17% 29.92 in 10.0 mi SW 8.1 mph - N/A   Clear
11:58 PM 80.1 °F 36.9 °F 21% 29.92 in 10.0 mi South 5.8 mph - N/A   Clear